Regional Weather Roundup
Issued by NWS

Home | Current Version | Previous Version | Graphics & Text | Print | Product List | Glossary On
Versions: 1 2 3 4 5 6 7 8 9 10 11 12 13 14 15 16 17 18 19 20 21 22 23 24 25 26 27 28 29 30 31 32 33 34 35 36 37 38 39 40 41 42 43 44 45 46 47 48 49 50
000
ASUS43 KFSD 210110
RWRSD

WEATHER ROUNDUP FOR SOUTH DAKOTA
NATIONAL WEATHER SERVICE SIOUX FALLS SD
800 PM CDT WED SEP 20 2017

NOTE: "FAIR" INDICATES FEW OR NO CLOUDS BELOW 12,000 FEET WITH NO
SIGNIFICANT WEATHER AND/OR OBSTRUCTIONS TO VISIBILITY.


SDZ001>005-009-010-012>017-210200-
NORTHWEST AND NORTH CENTRAL SOUTH DAKOTA

CITY           SKY/WX    TMP DP  RH WIND       PRES   REMARKS
BUFFALO          N/A     62  27  26 SW13      29.65R
FAITH            N/A     63  27  25 S8        29.74
MOBRIDGE       CLEAR     61  40  45 E8        29.74S
$$

SDZ012>016-024>037-041>051-057-063-072>074-210200-
SOUTHWEST AND SOUTH CENTRAL SOUTH DAKOTA

CITY           SKY/WX    TMP DP  RH WIND       PRES   REMARKS
RAPID CTY ARPT NOT AVBL
PIERRE         CLEAR     65  32  29 S7        29.75S
CUSTER         CLEAR     56  24  29 SW5       29.85S
ELLSWORTH AFB  CLEAR     68  28  22 W5        29.74S
PHILIP         CLEAR     68  30  24 S6        29.74S
PINE RIDGE     CLEAR     70  38  31 S15G24    29.80S
SPEARFISH      FAIR      63  27  25 CALM      29.77R
WINNER         FAIR      64  41  42 SE10      29.82S
$$

SDZ004>011-016>023-039-040-210200-
NORTHEAST SOUTH DAKOTA

CITY           SKY/WX    TMP DP  RH WIND       PRES   REMARKS
ABERDEEN       CLEAR     55  43  63 SE8       29.80R
WATERTOWN      CLEAR     60  46  59 S6        29.85S
BROOKINGS      CLEAR     63  46  54 S7        29.89R
SISSETON         N/A     58  47  66 S8        29.83R
$$

SDZ017-020-022-023-036>040-048>070-210200-
SOUTHEAST SOUTH DAKOTA

CITY           SKY/WX    TMP DP  RH WIND       PRES   REMARKS
SIOUX FALLS    CLEAR     65  46  50 CALM      29.88R
HURON          CLEAR     64  47  53 SE9       29.82S
CHAMBERLAIN    CLEAR     61  41  47 SE8       29.82S
MITCHELL       CLEAR     66  45  46 SE9       29.85R
YANKTON        CLEAR     66  49  54 SE5       29.89R
$$

ABBREVIATIONS USED IN REMARKS
   TC - TEMPERATURE IN CELSIUS
  WCI - WIND CHILL INDEX
   HX - HEAT INDEX
  VSB - VISIBILITY





USA.gov is the U.S. government's official web portal to all federal, state and local government web resources and services.